Change the Weather History Date:

Thursday, March 7, 2013

  Actual Average Record
Temperature  
Mean Temperature 34 °F 43 °F  
Max Temperature 36 °F 52 °F 78 °F (1974)
Min Temperature 31 °F 33 °F 1 °F (1899)
Degree Days  
Heating Degree Days 31 22  
Month to date heating degree days 226 163  
Since 1 July heating degree days 3734 3734  
Cooling Degree Days 0 0  
Month to date cooling degree days 0 0  
Year to date cooling degree days 0 0  
Moisture  
Dew Point 27 °F    
Average Humidity 78    
Maximum Humidity 92    
Minimum Humidity 64    
Precipitation  
Precipitation T in 0.13 in 2.39 in (1956)
Month to date precipitation 0.87 0.86  
Year to date precipitation 6.85 7.26  
Snow  
Snow T in 0.00 in 2.80 in (1957)
Month to date snowfall 2.5 0.4  
Since 1 July snowfall 11.0 11.7  
Snow Depth 1.00 in    
Sea Level Pressure  
Sea Level Pressure 30.36 in    
Wind  
Wind Speed 5 mph (NW)    
Max Wind Speed 9 mph    
Max Gust Speed 12 mph    
Visibility 9 miles    
Events      
T = Trace of Precipitation, MM = Missing Value Source: NWS Daily Summary

Daily Weather History Graph

Daily Weather History Graph

Search for Another Location

Airport or City:

Trip Planner

Search our weather history database for the weather conditions in past years. The results will help you decide how hot, cold, wet, or windy it might be!

Date:

Astronomy

Mar. 07, 2013 Rise Set
Actual Time 7:01 AM EST 6:38 PM EST
Civil Twilight 6:34 AM EST 7:04 PM EST
Nautical Twilight 6:04 AM EST 7:34 PM EST
Astronomical Twilight 5:33 AM EST 8:05 PM EST
Moon 3:56 AM EST (3/7) 2:28 PM EST (3/7)
Length of Visible Light 12h 29m
Length of Day
11h 36m
Waning Crescent, 20% of the Moon is Illuminated
Mar 7
Waning Crescent
Mar 11
New
Mar 19
First Quarter
Mar 27
Full
Apr 3
Last Quarter

Hourly Weather History & Observations

Time (EST) Temp. Windchill Dew Point Humidity Pressure Visibility Wind Dir Wind Speed Gust Speed Precip Events Conditions
12:54 AM 30.9 °F 25.2 °F 27.0 °F 85% 30.28 in 10.0 mi NW 5.8 mph - 0.00 in   Overcast
1:54 AM 32.0 °F 24.8 °F 27.0 °F 82% 30.29 in 10.0 mi NW 8.1 mph - N/A   Overcast
2:54 AM 30.9 °F 26.2 °F 27.0 °F 85% 30.29 in 10.0 mi WNW 4.6 mph - N/A   Overcast
3:54 AM 30.9 °F 26.2 °F 27.0 °F 85% 30.29 in 10.0 mi WNW 4.6 mph - N/A   Overcast
4:54 AM 30.9 °F 26.2 °F 27.0 °F 85% 30.31 in 10.0 mi WNW 4.6 mph - N/A   Overcast
5:54 AM 30.9 °F 26.2 °F 27.0 °F 85% 30.33 in 10.0 mi West 4.6 mph - N/A   Overcast
6:54 AM 30.9 °F 27.5 °F 27.0 °F 85% 30.35 in 10.0 mi WNW 3.5 mph - N/A   Overcast
7:54 AM 30.9 °F 27.5 °F 28.0 °F 89% 30.36 in 7.0 mi WNW 3.5 mph - 0.00 in   Overcast
8:54 AM 30.9 °F 26.2 °F 28.0 °F 89% 30.38 in 6.0 mi West 4.6 mph - 0.00 in   Overcast
9:20 AM 32.0 °F 27.5 °F 28.4 °F 87% 30.35 in 6.0 mi WNW 4.6 mph - N/A   Overcast
9:54 AM 32.0 °F 27.5 °F 28.0 °F 85% 30.38 in 5.0 mi WNW 4.6 mph - N/A   Overcast
10:21 AM 32.0 °F 26.4 °F 28.4 °F 87% 30.36 in 6.0 mi NW 5.8 mph - N/A   Overcast
10:54 AM 33.1 °F 27.7 °F 28.9 °F 85% 30.39 in 7.0 mi WNW 5.8 mph - N/A   Overcast
11:07 AM 33.8 °F 29.6 °F 28.4 °F 81% 30.36 in 6.0 mi WNW 4.6 mph - N/A   Overcast
11:14 AM 33.8 °F 29.6 °F 28.4 °F 81% 30.36 in 7.0 mi NW 4.6 mph - N/A   Overcast
11:54 AM 34.0 °F 28.8 °F 28.9 °F 82% 30.39 in 8.0 mi NNW 5.8 mph - N/A   Overcast
12:46 PM 35.6 °F 30.7 °F 28.4 °F 75% 30.36 in 10.0 mi NW 5.8 mph - N/A   Overcast
12:54 PM 34.0 °F 31.0 °F 28.0 °F 79% 30.38 in 10.0 mi Variable 3.5 mph - N/A   Overcast
1:14 PM 35.6 °F 31.7 °F 28.4 °F 75% 30.35 in 10.0 mi NNW 4.6 mph - N/A   Overcast
1:54 PM 35.1 °F 31.0 °F 28.0 °F 76% 30.36 in 10.0 mi NNW 4.6 mph - N/A   Overcast
2:54 PM 35.1 °F 30.1 °F 28.0 °F 76% 30.37 in 10.0 mi North 5.8 mph - N/A   Overcast
3:54 PM 35.1 °F 31.0 °F 27.0 °F 72% 30.36 in 10.0 mi NW 4.6 mph - N/A   Overcast
4:54 PM 36.0 °F 33.3 °F 27.0 °F 70% 30.37 in 10.0 mi NNW 3.5 mph - N/A   Overcast
5:54 PM 35.1 °F 29.3 °F 28.0 °F 76% 30.39 in 10.0 mi NNW 6.9 mph - N/A   Overcast
6:54 PM 35.1 °F 32.2 °F 27.0 °F 72% 30.39 in 10.0 mi NNW 3.5 mph - N/A   Overcast
7:54 PM 35.1 °F 32.2 °F 26.1 °F 70% 30.40 in 10.0 mi North 3.5 mph - N/A   Overcast
8:54 PM 35.1 °F - 26.1 °F 70% 30.40 in 10.0 mi Calm Calm - N/A   Overcast
9:54 PM 35.1 °F 29.3 °F 25.0 °F 67% 30.40 in 10.0 mi NNE 6.9 mph - N/A   Overcast
10:54 PM 35.1 °F - 24.1 °F 64% 30.40 in 10.0 mi Calm Calm - N/A   Overcast
11:01 PM 35.6 °F - 24.8 °F 65% 30.38 in 10.0 mi Calm Calm - N/A   Overcast
11:54 PM 34.0 °F 29.8 °F 25.0 °F 70% 30.38 in 10.0 mi ENE 4.6 mph - N/A   Overcast